COSMOS 2251 DEB, 34464

Orbit data source: Space-Track

COSMOS 2251 DEB, 34464 is space debris in LEO originally from a launch on Wed, 16 Jun 1993 UTC launched from the Plesetsk Missile And Space Complex (PKMTR). The debris from Iridium 33, an American commercial communications satellite, has been tracked extensively since its accidental collision with the defunct Russian satellite Cosmos 2251 in 2009. This event, occurring at high speed in low Earth orbit (LEO), generated thousands of pieces of space debris, significantly increasing the risk of further collisions. The Iridium 33 debris cloud has impacted space traffic management and orbital debris mitigation strategies, making it a subject of ongoing study in space situational awareness.

Loading next visibility...
Identifier
34464, 1993-036TH
Orbit
LEO
Country
Flag of CISCIS
Related business
Manufacturer
Unknown
Mission
Spacecraft
Bus & Motor
Unknown
Mass
Unknown
Launch date (UTC)
1993-06-16 (33 years ago)
Launch vehicle
Unknown
Launch site
Plesetsk Missile And Space Complex (PKMTR)
Object type
Payload
Rocket body
Debris
Shape & HBR
Unknown shape, 0.1 m
Radar Cross Section
Small (<0.1 m²)

Expand to show TLE details & history
Last TLE update: 10 hours ago

TLE from 10 hours ago
0 COSMOS 2251 DEB
1 34464U 93036TH  26034.25996269  .00136096  00000-0  35252-2 0  9999
2 34464  73.9869 325.8286 0014764 133.4149 226.8289 15.38331597906441
Epoch: 2026-02-03T06:14Z
TLE epoch observation values (Epoch: 2026-02-03T06:14:20.776Z)
Latitude
-0.00007°
Longitude
98.79856°
Altitude
460.681 km
Speed
7.633 km/s
True Right ascension
21h 43m 18s
True Declination
0° 00' 00"
Sunlit
Object was in daylight at epoch
Visualization orbit readout
Latitude
Unknown
Longitude
Unknown
Altitude
Unknown
Speed
Unknown
Apparent Right ascension
Unknown
Apparent Declination
Unknown
Sunlit
N/A
Visualization observer readout
Local Sidereal Time
18:02:50
Azimuth
Unknown
Elevation
Unknown
Doppler factor
Unknown
Orbital elements
Apogee altitude
458.638 km
Perigee altitude
438.48 km
Semi-major axis
6,826.696 km
Eccentricity
0.00148
Inclination
73.9869°
RAAN
325.8286°
Arg. of periapsis
133.4149°
True anomaly
226.70567°
Mean anomaly
226.8289°
Eccentric anomaly
226.76727°
Mean motion
3.84793 °/min
Orbital period
93.56 mins
BSTAR
0.0035252
Loading maneuver chart data...
Computing Atmospheric mass density...
Loading historical data...
Loading historical data...
Loading historical data...
Loading historical data...
Loading historical data...
Loading historical data...
Loading historical data...

Documentation

Showing up to 5 results
|